Weather History for Denali Park, AK

Change the Weather History Date:

Friday, May 16, 2014

  Actual Average Record
Temperature  
Mean Temperature 46 °F -  
Max Temperature 62 °F 52 °F 64 °F (1959)
Min Temperature 30 °F 27 °F 15 °F (1992)
Degree Days  
Heating Degree Days 19    
Moisture  
Dew Point 30 °F    
Average Humidity 47    
Maximum Humidity 86    
Minimum Humidity 30    
Precipitation  
Precipitation 0.00 in - - ()
Sea Level Pressure  
Sea Level Pressure 30.21 in    
Wind  
Wind Speed 3 mph (North)    
Max Wind Speed 13 mph    
Max Gust Speed 21 mph    
Visibility 10 miles    
Events      
Averages and records for this station are not official NWS values.
T = Trace of Precipitation, MM = Missing Value Source: NWS Daily Summary

Daily Weather History Graph

Daily Weather History Graph

Search for Another Location

Airport:

Trip Planner

Search our weather history database for the weather conditions in past years. The results will help you decide how hot, cold, wet, or windy it might be!

Date:

Astronomy

May. 16, 2014 Rise Set
Actual Time 4:41 AM AKDT 11:04 PM AKDT
Civil Twilight 3:02 AM AKDT 12:48 AM AKDT
Nautical Twilight Sun does not rise Sun does not rise
Astronomical Twilight Sun does not rise Sun does not rise
Moon 12:16 AM AKDT (5/16) 6:35 AM AKDT (5/16)
Length of Visible Light 21h 45m
Length of Day
18h 23m
Waning Gibbous, 95% of the Moon is Illuminated
May 16
Waning Gibbous
May 21
Last Quarter
May 28
New
Jun 5
First Quarter
Jun 12
Full

Hourly Weather History & Observations

Time (AKDT) Temp. Dew Point Humidity Pressure Visibility Wind Dir Wind Speed Gust Speed Precip Events Conditions
12:16 AM 48.2 °F 24.8 °F 40% 30.26 in 10.0 mi SSW 6.9 mph - N/A   Partly Cloudy
12:36 AM 48.2 °F 24.8 °F 40% 30.26 in 10.0 mi SSW 3.5 mph - N/A   Clear
12:56 AM 46.4 °F 24.8 °F 43% 30.26 in 10.0 mi Calm Calm - N/A   Clear
1:16 AM 44.6 °F 26.6 °F 49% 30.26 in 10.0 mi Calm Calm - N/A   Clear
1:36 AM 44.6 °F 24.8 °F 46% 30.26 in 10.0 mi Calm Calm - N/A   Clear
1:56 AM 44.6 °F 24.8 °F 46% 30.27 in 10.0 mi Calm Calm - N/A   Clear
2:16 AM 41.0 °F 26.6 °F 57% 30.27 in 10.0 mi Calm Calm - N/A   Clear
2:36 AM 39.2 °F 26.6 °F 61% 30.27 in 10.0 mi Calm Calm - N/A   Clear
2:56 AM 39.2 °F 26.6 °F 61% 30.27 in 10.0 mi Calm Calm - N/A   Clear
3:16 AM 35.6 °F 26.6 °F 70% 30.27 in 10.0 mi Calm Calm - N/A   Clear
3:36 AM 35.6 °F 26.6 °F 70% 30.27 in 10.0 mi Calm Calm - N/A   Clear
3:56 AM 35.6 °F 26.6 °F 70% 30.27 in 10.0 mi Calm Calm - N/A   Clear
4:16 AM 35.6 °F 26.6 °F 70% 30.27 in 10.0 mi Calm Calm - N/A   Clear
4:36 AM 33.8 °F 26.6 °F 75% 30.27 in 10.0 mi Calm Calm - N/A   Clear
4:56 AM 30.2 °F 26.6 °F 86% 30.27 in 10.0 mi Calm Calm - N/A   Clear
5:16 AM 32.0 °F 26.6 °F 80% 30.27 in 10.0 mi Calm Calm - N/A   Clear
5:36 AM 32.0 °F 26.6 °F 80% 30.27 in 10.0 mi Calm Calm - N/A   Clear
5:56 AM 33.8 °F 26.6 °F 75% 30.27 in 10.0 mi Calm Calm - N/A   Clear
6:16 AM 32.0 °F 26.6 °F 80% 30.27 in 10.0 mi Calm Calm - N/A   Partly Cloudy
6:36 AM 33.8 °F 26.6 °F 75% 30.27 in 10.0 mi Calm Calm - N/A   Scattered Clouds
6:56 AM 33.8 °F 26.6 °F 75% 30.27 in 10.0 mi Calm Calm - N/A   Mostly Cloudy
7:16 AM 35.6 °F 26.6 °F 70% 30.27 in 10.0 mi Calm Calm - N/A   Overcast
7:36 AM 37.4 °F 28.4 °F 70% 30.27 in 10.0 mi Calm Calm - N/A   Overcast
7:56 AM 39.2 °F 28.4 °F 65% 30.26 in 10.0 mi Calm Calm - N/A   Mostly Cloudy
8:16 AM 42.8 °F 28.4 °F 57% 30.26 in 10.0 mi Calm Calm - N/A   Clear
8:36 AM 44.6 °F 28.4 °F 53% 30.25 in 10.0 mi Calm Calm - N/A   Clear
8:56 AM 46.4 °F 28.4 °F 50% 30.25 in 10.0 mi Calm Calm - N/A   Mostly Cloudy
9:16 AM 46.4 °F 30.2 °F 53% 30.24 in 10.0 mi Calm Calm - N/A   Scattered Clouds
9:36 AM 48.2 °F 30.2 °F 50% 30.24 in 10.0 mi Calm Calm - N/A   Mostly Cloudy
9:56 AM 50.0 °F 28.4 °F 43% 30.24 in 10.0 mi NE 3.5 mph - N/A   Mostly Cloudy
10:16 AM 53.6 °F 30.2 °F 41% 30.23 in 10.0 mi NNE 5.8 mph - N/A   Mostly Cloudy
10:36 AM 57.2 °F 28.4 °F 33% 30.22 in 10.0 mi NNE 10.4 mph - N/A   Mostly Cloudy
10:56 AM 57.2 °F 28.4 °F 33% 30.23 in 10.0 mi NNW 4.6 mph - N/A   Overcast
11:16 AM 57.2 °F 28.4 °F 33% 30.22 in 10.0 mi WNW 4.6 mph - N/A   Overcast
11:36 AM 57.2 °F 26.6 °F 31% 30.22 in 10.0 mi NNW 5.8 mph - N/A   Scattered Clouds
11:56 AM 57.2 °F 28.4 °F 33% 30.22 in 10.0 mi North 6.9 mph - N/A   Partly Cloudy
12:16 PM 57.2 °F 28.4 °F 33% 30.22 in 10.0 mi NE 5.8 mph - N/A   Mostly Cloudy
12:36 PM 57.2 °F 28.4 °F 33% 30.21 in 10.0 mi NNE 12.7 mph 19.6 mph N/A   Mostly Cloudy
12:56 PM 57.2 °F 28.4 °F 33% 30.21 in 10.0 mi North 6.9 mph - N/A   Mostly Cloudy
1:16 PM 59.0 °F 28.4 °F 31% 30.21 in 10.0 mi NW 4.6 mph 17.3 mph N/A   Partly Cloudy
1:36 PM 59.0 °F 28.4 °F 31% 30.20 in 10.0 mi North 6.9 mph - N/A   Partly Cloudy
1:56 PM 59.0 °F 28.4 °F 31% 30.20 in 10.0 mi NE 4.6 mph - N/A   Clear
2:16 PM 62.6 °F 30.2 °F 30% 30.19 in 10.0 mi WNW 4.6 mph - N/A   Partly Cloudy
2:36 PM 62.6 °F 30.2 °F 30% 30.19 in 10.0 mi WNW 10.4 mph - N/A   Partly Cloudy
2:56 PM 62.6 °F 30.2 °F 30% 30.19 in 10.0 mi Calm Calm - N/A   Partly Cloudy
3:16 PM 62.6 °F 30.2 °F 30% 30.18 in 10.0 mi North 10.4 mph 18.4 mph N/A   Scattered Clouds
3:36 PM 62.6 °F 30.2 °F 30% 30.18 in 10.0 mi NW 8.1 mph - N/A   Clear
3:56 PM 62.6 °F 30.2 °F 30% 30.18 in 10.0 mi NNW 5.8 mph - N/A   Clear
4:16 PM 62.6 °F 30.2 °F 30% 30.17 in 10.0 mi NNW 4.6 mph - N/A   Clear
4:36 PM 62.6 °F 30.2 °F 30% 30.17 in 10.0 mi WNW 8.1 mph - N/A   Partly Cloudy
4:56 PM 62.6 °F 30.2 °F 30% 30.16 in 10.0 mi WNW 5.8 mph - N/A   Partly Cloudy
5:16 PM 62.6 °F 30.2 °F 30% 30.16 in 10.0 mi NNE 8.1 mph - N/A   Partly Cloudy
5:36 PM 62.6 °F 30.2 °F 30% 30.15 in 10.0 mi North 9.2 mph 20.7 mph N/A   Scattered Clouds
5:56 PM 62.6 °F 32.0 °F 32% 30.15 in 10.0 mi North 9.2 mph - N/A   Scattered Clouds
6:16 PM 62.6 °F 30.2 °F 30% 30.15 in 10.0 mi NW 3.5 mph 16.1 mph N/A   Mostly Cloudy
6:36 PM 60.8 °F 32.0 °F 34% 30.15 in 10.0 mi North 5.8 mph 16.1 mph N/A   Mostly Cloudy
6:56 PM 60.8 °F 33.8 °F 36% 30.14 in 10.0 mi North 8.1 mph 16.1 mph N/A   Mostly Cloudy
7:16 PM 62.6 °F 33.8 °F 34% 30.14 in 10.0 mi North 5.8 mph 17.3 mph N/A   Overcast
7:36 PM 62.6 °F 33.8 °F 34% 30.14 in 10.0 mi NNE 9.2 mph - N/A   Mostly Cloudy
7:56 PM 60.8 °F 33.8 °F 36% 30.14 in 10.0 mi North 9.2 mph - N/A   Scattered Clouds
8:16 PM 60.8 °F 33.8 °F 36% 30.14 in 10.0 mi North 4.6 mph - N/A   Scattered Clouds
8:36 PM 59.0 °F 33.8 °F 39% 30.14 in 10.0 mi North 3.5 mph - N/A   Clear
8:56 PM 59.0 °F 33.8 °F 39% 30.14 in 10.0 mi North 8.1 mph - N/A   Clear
9:16 PM 57.2 °F 35.6 °F 44% 30.14 in 10.0 mi North 5.8 mph - N/A   Clear
9:36 PM 57.2 °F 35.6 °F 44% 30.14 in 10.0 mi North 4.6 mph - N/A   Clear
9:56 PM 57.2 °F 35.6 °F 44% 30.14 in 10.0 mi North 6.9 mph - N/A   Clear
10:16 PM 57.2 °F 35.6 °F 44% 30.14 in 10.0 mi North 4.6 mph - N/A   Clear
10:36 PM 55.4 °F 37.4 °F 51% 30.14 in 10.0 mi North 5.8 mph - N/A   Clear
10:56 PM 55.4 °F 37.4 °F 51% 30.14 in 10.0 mi Calm Calm - N/A   Partly Cloudy
11:16 PM 51.8 °F 37.4 °F 58% 30.14 in 10.0 mi Calm Calm - N/A   Partly Cloudy
11:36 PM 50.0 °F 35.6 °F 58% 30.15 in 10.0 mi Calm Calm - N/A   Mostly Cloudy
11:56 PM 48.2 °F 37.4 °F 66% 30.15 in 10.0 mi Calm Calm - N/A   Overcast